Tracking 25534 objects as of 28-Jan-2022
HD Live streaming from Space Station
objects crossing your sky now

STARLINK-3333

Track STARLINK-3333 now!
10-day predictions
STARLINK-3333 is classified as:


NORAD ID: 50805
Int'l Code: 2022-001C
Perigee: 355.7 km
Apogee: 358.0 km
Inclination: 53.2 °
Period: 91.5 minutes
Semi major axis: 6727 km
RCS: Unknown
Launch date: January 6, 2022
Source: United States (US)
Launch site: AIR FORCE EASTERN TEST RANGE (AFETR)
aabbcc
Your satellite tracking list
Your tracking list is empty




NASA's NSSDC Master Catalog

Two Line Element Set (TLE):
1 50805U 22001C   22028.83334491 -.00011305  00000-0 -76146-4 0  9992
2 50805  53.2158  90.5066 0001683  42.0352 309.3572 15.73225777  4755
Source of the keplerian elements: AFSPC